Location: �perlecques
(50.8057°N, 2.1521°E)
Time: 23:52:27
(UTC+00:00)

USA 234 - Pass Details

Date: 09 April 2020
Orbit: 1102 x 1106 km, 123.0° (Epoch: 14 May)

Event Time Altitude Azimuth Distance (km) Brightness Sun altitude
Rises 21:34:38 0° 57° (ENE) 3,927 6.1 -24.1°
Reaches altitude 10° 21:37:09 10° 61° (ENE) 2,967 5.4 -24.3°
Maximum altitude 21:43:41 66° 143° (SE) 1,196 3.1 -24.9°
Drops below altitude 10° 21:50:10 10° 225° (SW) 2,957 5.4 -25.5°
Sets 21:52:41 0° 228° (SW) 3,913 6.1 -25.7°
